Probability
0 0 0 0 0 0 0 0 0 0 0 0 0 0 0 0 1 1 1 2 7 14 19 22 22 20 17 16 16 15 12 10 11 13 14 14 13 12 11 11 12 13 11 10 9 9 10 9 8
0 0 0 0 0 0 0 0 0 0 0 0 0 0 0 0 1 2 1 3 8 15 20 23 23 21 19 17 17 15 13 11 11 12 13 13 12 11 11 11 12 13 11 10 10 11 11 10 9
0 0 0 0 0 0 0 0 0 0 0 0 0 1 1 1 1 1 1 4 10 16 21 23 24 22 21 20 18 16 14 12 11 10 10 10 10 10 10 10 12 13 12 11 11 12 12 10 10
0 0 0 0 0 0 0 0 0 0 0 0 1 2 3 2 1 1 1 5 12 17 20 23 23 22 23 23 20 17 14 12 11 9 8 9 10 10 10 10 11 12 13 13 13 13 10 9 10
0 0 0 0 0 0 0 0 0 0 0 0 1 3 4 4 3 1 2 7 14 19 20 21 22 22 21 21 19 16 13 12 10 7 8 9 10 10 10 10 10 10 11 13 14 12 10 9 10
0 0 0 0 0 0 0 0 0 0 0 0 2 3 4 6 5 4 5 10 16 20 21 20 20 20 19 17 15 14 12 11 9 7 7 8 9 10 10 10 10 10 10 12 14 12 10 9 10
0 0 0 0 0 0 0 0 0 0 0 0 1 4 6 7 8 8 9 13 17 21 22 19 18 17 17 15 14 12 12 10 8 6 7 8 9 10 10 10 10 9 9 10 12 12 12 11 11
0 0 0 0 0 0 0 0 0 0 1 1 1 4 7 8 9 11 13 15 17 20 21 18 16 16 15 14 13 12 12 10 8 6 6 7 9 9 9 9 7 6 7 8 10 12 13 13 13
0 0 0 0 0 0 0 0 0 1 2 2 1 2 5 7 10 12 13 14 16 19 20 18 17 15 13 11 12 12 10 9 7 6 6 7 8 8 7 6 5 4 5 7 9 11 13 13 12
0 0 0 0 0 0 0 0 0 1 1 2 2 1 3 6 8 10 11 12 14 17 18 17 17 15 12 10 10 10 9 8 7 6 6 7 7 6 5 4 3 3 4 6 8 10 11 10 9
0 0 0 0 0 0 0 0 0 0 0 1 2 2 3 4 4 6 8 9 11 14 16 17 16 13 11 9 8 8 8 8 7 6 6 6 5 4 3 3 3 3 4 5 7 8 8 6 5
0 0 0 0 0 0 0 0 0 0 0 1 2 3 4 3 2 2 4 5 8 10 13 15 14 11 10 8 7 7 7 7 7 6 6 5 4 3 3 3 3 3 4 5 6 7 6 4 3
0 0 0 0 0 0 0 0 0 0 1 3 4 5 5 4 2 1 1 3 5 8 11 12 11 10 9 7 6 5 4 4 6 6 5 4 3 3 3 3 3 3 4 5 6 6 4 3 2
0 0 0 0 0 0 0 0 0 0 1 3 5 6 6 4 3 1 1 2 4 7 10 11 10 8 7 7 6 4 2 2 5 6 4 3 3 3 3 3 3 3 4 6 6 5 4 2 1
0 0 0 0 0 0 0 0 0 0 1 3 6 6 6 5 3 1 0 1 2 5 9 10 8 7 7 6 6 4 1 1 3 5 4 3 3 3 3 3 3 3 4 6 6 4 3 2 1
0 0 0 0 0 0 0 0 0 1 1 3 5 6 6 6 4 2 1 0 1 3 6 7 7 6 6 6 6 4 2 0 2 3 4 3 3 3 3 3 3 3 4 6 6 4 3 3 2
0 0 0 0 0 0 0 0 1 2 3 3 4 6 6 6 4 3 2 1 0 2 4 6 6 6 6 6 5 4 2 1 1 1 2 3 3 3 3 3 3 3 4 6 6 4 3 3 3
0 0 0 0 0 0 0 0 1 4 4 3 4 6 6 5 3 3 2 1 0 0 2 5 6 6 5 4 4 3 3 2 0 0 1 3 3 3 3 3 3 4 5 6 6 4 3 3 3
0 0 0 0 0 0 0 0 1 4 4 3 4 6 6 5 4 3 2 1 0 0 1 4 6 6 5 3 3 3 3 2 0 0 1 2 3 3 3 3 3 4 6 6 5 4 3 3 3
0 0 0 0 0 0 0 0 1 2 3 3 4 6 6 6 4 3 2 1 1 1 2 4 6 6 4 3 2 2 2 1 0 0 0 2 3 3 3 3 3 4 5 5 4 3 3 3 3
0 0 0 0 0 0 0 0 0 1 1 1 3 5 6 5 3 3 2 1 1 2 2 4 5 5 4 2 1 1 1 1 0 0 0 1 2 3 3 3 4 4 5 4 3 3 3 3 3
0 0 0 0 0 0 0 0 0 0 0 0 2 4 5 4 2 2 2 1 1 1 2 3 4 4 4 2 1 1 0 0 0 0 0 1 1 1 2 3 4 4 4 4 3 3 3 3 3
0 0 0 0 0 0 0 0 0 0 0 0 1 3 3 3 2 2 1 0 0 0 1 2 2 2 3 2 1 1 0 0 0 0 0 0 0 0 1 2 3 3 3 3 3 3 3 3 2
0 0 0 0 0 0 0 0 0 0 0 0 1 1 2 2 2 2 1 0 0 0 0 1 1 1 2 2 1 0 0 0 0 0 0 0 0 0 0 1 1 1 2 3 3 3 3 2 2
0 0 0 0 0 0 0 0 0 0 0 0 0 0 0 1 1 1 1 0 0 0 0 0 0 0 1 2 1 0 0 0 0 0 0 0 0 0 0 0 0 0 1 1 2 2 2 2 2
0 0 0 0 0 0 0 0 0 0 0 0 0 0 0 0 0 0 0 0 0 0 0 1 1 0 1 1 1 0 0 0 0 0 0 0 0 0 0 0 0 0 0 1 2 2 1 2 1
0 0 0 0 0 0 0 0 0 0 0 0 0 0 1 0 0 0 0 0 0 0 0 0 1 1 1 0 0 0 0 0 0 0 0 0 0 0 0 0 0 0 0 0 1 1 0 0 0
0 0 0 0 0 0 0 0 0 0 0 0 0 0 0 0 0 0 0 0 0 0 0 0 0 0 0 0 0 0 0 0 0 0 0 0 0 0 0 0 0 1 1 1 0 0 0 0 0
0 0 0 0 0 0 0 0 0 0 0 0 0 0 0 0 0 0 0 0 0 0 0 0 0 0 0 0 0 0 0 0 0 0 0 0 0 0 0 0 0 1 1 1 0 0 0 0 0
0 0 0 0 0 0 0 0 0 0 0 0 0 0 0 0 0 0 0 0 0 0 0 0 0 0 0 0 0 0 0 0 0 0 0 0 0 0 0 0 0 0 1 0 0 0 0 0 0
Wind_Speed
8 4 2 4 6 4 3 3 2 1 1 1 0 2 3 3 3 2 1 1 3 3 2 2 3 4 4 5 5 5 6 6 6 6 6 5 5 5 6 7 6 6 6 7 8 8 9 9 9
3 2 4 5 5 2 4 3 3 3 2 0 1 2 2 1 1 1 1 1 3 2 2 2 4 4 4 4 4 5 5 5 5 6 6 6 5 5 5 6 6 6 6 7 7 7 8 8 8
3 4 4 4 3 6 5 2 3 2 1 1 1 1 1 1 1 0 1 1 3 3 2 2 4 4 4 4 4 4 4 5 5 5 5 5 5 5 5 5 5 5 5 6 6 7 7 8 8
3 4 4 3 5 5 3 2 2 0 2 2 2 1 1 1 0 0 2 2 3 3 2 2 4 4 4 4 4 4 4 4 4 5 5 5 5 4 4 4 4 5 5 5 6 6 7 7 8
4 4 3 1 5 3 2 2 1 0 1 1 1 0 2 2 3 3 3 3 3 2 2 1 3 4 4 5 4 4 4 4 4 4 4 4 4 4 4 3 4 4 4 5 5 5 6 6 7
4 4 3 5 5 3 2 2 0 1 1 1 1 0 2 1 3 2 2 2 1 2 2 2 3 3 4 4 5 4 4 4 4 4 3 3 3 3 4 3 3 3 4 4 5 5 5 6 7
4 3 3 3 3 3 2 0 1 0 1 2 1 1 2 2 3 2 2 2 2 2 2 2 2 2 3 3 4 4 4 4 4 4 4 4 4 4 3 3 3 2 3 4 4 4 5 6 6
4 4 1 2 3 3 1 1 0 1 2 1 1 2 3 3 2 2 2 3 2 2 2 1 2 2 2 1 4 5 5 5 5 5 5 5 5 4 4 4 3 2 3 3 3 3 5 5 6
3 3 3 4 4 3 1 1 2 1 1 2 1 2 2 0 1 2 2 2 2 2 1 1 2 3 2 2 3 4 4 5 5 4 6 5 3 3 3 4 4 3 3 3 3 3 4 4 5
4 3 5 3 2 2 2 1 2 1 2 2 4 3 2 1 1 1 1 1 1 1 1 1 2 2 2 2 2 2 2 2 3 3 3 3 3 3 4 4 5 4 4 3 3 3 4 3 1
2 3 2 2 2 1 2 3 1 1 3 4 3 2 1 1 1 0 1 2 2 2 1 0 1 2 2 2 2 1 1 2 2 3 3 2 3 2 3 2 3 3 4 2 3 3 1 1 1
1 1 1 1 1 1 1 2 1 2 5 4 3 3 1 0 1 2 2 2 2 1 1 0 1 1 1 2 1 1 1 1 1 2 2 2 1 2 2 2 2 2 1 1 2 1 2 1 1
1 1 1 1 1 1 1 2 2 3 5 2 1 2 1 2 2 3 2 2 2 2 2 1 1 1 1 2 1 1 1 1 1 1 1 1 1 1 1 1 1 2 1 1 1 1 2 1 1
1 0 1 2 2 1 1 3 2 4 2 1 1 1 1 2 2 2 3 3 2 3 2 1 1 1 2 1 1 1 1 1 1 1 1 1 1 1 1 1 1 1 1 1 0 1 1 1 1
0 2 3 2 2 1 1 4 3 4 1 1 1 1 1 2 1 2 2 3 3 3 1 1 1 1 1 1 1 1 1 1 1 0 0 1 1 1 0 0 1 1 1 1 1 1 1 1 1
2 3 2 3 2 2 1 3 4 3 1 0 2 2 2 3 2 3 2 2 3 2 1 1 1 0 1 1 1 1 1 1 0 0 0 1 1 1 0 0 1 1 1 0 0 1 1 1 1
3 1 2 4 2 2 1 4 5 3 1 1 2 3 3 3 3 3 2 2 2 2 1 1 1 0 1 1 1 1 1 0 0 0 0 0 0 0 0 0 1 1 1 1 0 1 1 0 1
2 2 2 3 2 2 1 4 6 4 0 1 3 3 3 3 3 3 2 2 1 1 1 0 1 0 1 1 1 1 1 1 0 0 0 0 0 0 0 0 1 1 0 1 1 1 1 0 0
2 2 3 4 2 1 2 5 6 4 1 2 3 2 3 4 3 2 2 2 2 2 3 2 1 1 0 0 1 0 1 1 1 1 0 0 0 0 0 0 1 1 0 0 0 1 1 1 1
2 2 3 3 1 1 2 5 5 3 2 2 3 3 3 3 3 3 3 2 2 2 2 2 1 1 1 1 1 1 1 1 1 1 1 0 0 0 1 1 1 1 0 0 0 1 1 1 1
2 3 3 3 4 1 1 5 3 2 1 2 2 2 2 2 2 3 3 3 2 2 3 3 2 2 1 1 0 0 0 0 1 1 1 1 1 0 0 1 1 1 0 0 0 1 2 1 0
3 2 2 2 2 2 1 4 5 3 3 3 3 3 3 3 2 2 3 3 3 3 3 2 2 2 1 1 1 2 1 1 1 1 1 1 1 0 1 1 1 0 0 0 0 1 1 2 1
3 2 1 1 1 2 1 1 7 1 3 5 4 4 4 3 2 2 3 3 3 2 2 2 2 2 1 1 1 2 1 1 0 0 0 1 1 0 1 0 0 0 0 0 0 1 1 1 1
1 1 2 2 2 2 2 2 6 2 4 4 4 4 4 3 3 2 3 3 3 3 2 2 2 3 2 1 1 1 2 1 1 1 0 1 1 0 1 1 0 0 0 0 1 1 1 1 1
3 3 4 5 3 4 1 2 7 4 3 4 5 4 4 3 2 3 3 4 4 3 3 3 2 3 2 1 1 1 2 3 3 2 2 1 0 0 1 1 0 0 0 1 1 1 1 1 1
0 2 4 3 3 4 2 5 7 3 3 3 3 3 3 4 3 3 3 3 3 4 3 3 3 3 3 2 1 1 2 2 2 2 2 1 1 1 1 0 0 0 0 0 0 1 1 1 1
2 1 2 3 0 2 5 6 7 2 4 5 5 5 5 5 4 4 4 3 3 4 4 4 3 3 3 2 1 1 1 1 2 2 1 1 1 0 0 0 0 0 1 1 1 1 1 1 1
1 3 3 2 1 3 5 5 5 5 5 5 5 5 5 5 5 5 4 4 4 3 4 4 3 3 3 2 1 1 1 1 2 2 2 1 1 1 1 0 0 1 1 1 1 1 1 1 1
1 1 2 2 2 3 4 7 4 4 4 4 5 5 5 5 5 5 4 4 4 4 3 4 3 3 2 1 1 0 0 0 1 1 1 1 1 1 1 1 0 1 1 1 1 1 1 1 1
3 3 4 3 3 3 3 9 3 3 3 3 5 5 5 4 4 4 4 4 4 4 4 4 3 3 3 1 1 0 0 1 1 1 1 1 1 1 1 1 1 1 1 1 1 1 1 1 1
Wind_Direction
342 354 47 57 61 60 222 237 221 231 240 274 234 141 151 158 166 202 341 72 89 117 122 129 96 90 101 103 98 88 85 82 80 78 76 82 94 105 106 110 113 115 117 116 115 115 114 111 109
340 4 49 63 99 175 248 227 220 225 217 313 35 65 74 278 335 40 13 21 95 105 98 103 88 78 90 105 103 95 89 88 84 79 75 72 81 98 108 106 111 118 116 118 119 117 117 116 113
2 48 76 85 143 195 214 211 208 269 308 71 46 28 113 249 326 2 339 88 85 75 67 98 80 73 80 101 100 95 92 91 87 82 78 74 72 83 101 111 110 119 126 121 124 124 123 122 119
51 48 57 94 209 222 213 231 192 240 356 35 90 347 312 317 338 86 77 82 76 52 47 81 76 76 77 83 93 90 94 93 88 86 81 80 71 71 81 101 114 111 125 130 126 131 129 128 124
56 75 84 215 233 240 249 275 204 162 293 352 90 263 295 341 45 77 85 84 89 56 40 69 74 78 75 75 79 83 85 88 86 87 87 86 81 74 73 82 107 115 117 134 135 135 135 135 130
58 71 126 221 237 251 268 285 5 335 328 348 73 207 262 5 40 65 84 59 61 77 53 68 68 72 73 72 70 70 74 76 75 74 77 77 84 86 80 80 105 122 123 126 141 143 142 143 138
99 107 182 214 243 260 254 318 154 221 283 259 197 177 273 341 357 22 49 45 39 58 64 49 67 64 72 70 65 62 67 68 70 68 62 65 70 77 79 76 85 104 124 123 133 141 146 148 142
114 106 153 225 230 256 282 8 358 162 251 276 128 169 251 286 331 29 42 48 44 51 57 41 49 50 47 67 67 61 61 63 64 64 49 53 61 64 68 62 65 75 94 116 117 132 135 142 138
82 91 209 219 216 248 332 14 335 360 67 334 303 241 264 301 53 67 40 27 21 26 40 62 65 45 33 41 61 66 63 63 62 57 53 45 38 41 47 46 50 52 68 89 104 113 112 116 126
84 165 225 225 211 234 302 318 298 343 336 319 319 338 13 43 94 133 175 238 262 302 326 64 74 67 51 44 40 55 55 55 53 50 51 42 27 33 42 41 44 44 53 70 85 87 98 82 93
108 186 225 275 266 278 303 305 314 196 271 263 256 268 348 9 352 242 235 246 238 234 289 37 78 76 77 64 41 32 49 46 51 54 53 54 39 30 35 28 20 20 30 29 46 50 57 87 87
121 264 221 275 312 336 302 290 311 259 256 261 219 194 185 245 295 272 251 264 293 299 284 327 85 79 75 84 72 47 46 60 57 58 67 69 58 34 25 35 10 10 12 16 30 43 36 80 109
178 280 309 281 347 359 346 295 271 287 286 297 177 154 196 247 283 305 304 287 287 296 281 225 136 121 105 96 85 50 29 26 78 79 71 83 84 51 20 17 19 4 358 14 34 51 66 55 101
205 322 331 327 315 340 354 316 334 289 311 38 75 167 238 254 279 317 326 314 299 278 272 246 145 136 118 105 101 80 49 13 30 52 41 68 85 73 32 3 8 346 338 339 37 106 112 77 108
31 17 357 341 325 300 14 340 306 293 13 56 319 291 291 293 308 300 298 305 298 285 282 294 209 137 129 124 112 88 60 36 0 359 29 63 73 78 57 353 339 328 330 351 43 78 83 90 82
34 43 356 328 348 304 121 278 300 327 78 313 293 295 295 301 302 301 307 312 320 321 284 287 282 128 136 128 106 92 67 54 5 337 3 34 43 51 56 353 320 321 331 12 93 99 77 92 82
30 13 292 308 343 339 125 253 293 324 90 290 292 288 288 297 312 311 310 299 310 321 272 277 313 190 166 126 93 96 78 47 337 110 82 326 3 4 332 310 304 318 335 5 318 92 100 141 75
264 267 273 284 309 10 329 273 293 306 134 272 280 285 301 298 295 308 314 311 315 335 332 312 314 309 165 123 75 50 33 355 332 297 211 339 297 328 323 294 303 301 324 15 21 104 69 58 145
205 221 266 278 280 327 265 274 286 297 310 277 284 285 291 285 302 333 324 323 343 347 352 319 314 320 354 158 170 235 278 306 317 288 244 233 254 264 232 298 291 287 241 234 226 143 117 59 30
200 248 273 289 290 279 276 276 271 274 250 236 260 280 284 305 339 344 340 345 333 319 322 324 307 316 300 257 208 209 229 254 280 298 290 256 226 249 230 226 256 265 269 76 106 106 127 108 61
280 224 253 282 326 360 295 295 267 277 290 301 283 278 295 292 298 322 344 340 326 319 305 317 300 289 273 276 219 112 26 358 8 329 309 320 320 284 280 251 253 258 215 165 150 132 126 149 77
278 270 256 270 333 308 9 289 284 262 302 318 309 314 310 307 311 331 335 326 320 315 309 296 305 292 275 223 192 196 201 228 239 249 279 314 328 318 327 306 272 268 1 79 197 113 126 147 159
249 298 279 266 197 310 328 237 286 300 294 295 296 299 295 293 304 319 316 307 321 322 311 293 315 306 288 246 202 202 207 233 231 95 1 342 343 3 350 324 328 323 312 136 110 108 111 138 144
241 27 44 50 65 295 248 198 280 244 248 285 292 288 288 295 301 309 320 333 338 337 336 316 321 321 311 282 200 201 198 195 167 150 160 313 315 357 7 7 1 357 281 205 195 172 146 136 117
48 74 23 359 354 262 274 232 258 260 247 246 266 278 290 301 309 319 336 340 330 326 321 309 312 319 309 291 227 206 206 197 185 186 183 206 275 303 309 1 309 276 252 238 183 170 167 167 156
258 123 149 216 250 289 322 251 262 278 278 273 286 311 336 339 330 320 312 310 317 312 307 302 297 304 299 279 256 225 210 202 190 192 184 188 216 234 234 225 310 305 133 69 145 153 180 150 165
132 165 167 142 251 284 276 282 297 312 330 338 343 346 333 324 318 314 318 320 321 316 306 295 293 303 294 269 249 236 217 195 183 191 175 181 196 211 94 133 90 114 105 98 95 114 177 157 171
129 145 96 116 190 278 288 274 266 287 298 316 322 316 310 318 323 320 318 320 318 312 312 313 304 294 287 271 248 228 238 203 184 178 173 177 176 162 156 117 63 81 90 98 98 89 90 129 185
82 92 106 122 171 185 276 274 238 241 267 278 288 298 304 310 312 314 314 319 321 325 329 324 316 313 309 305 300 312 299 194 165 167 177 168 160 161 181 171 140 117 109 102 98 87 112 107 76
167 181 157 166 240 206 231 271 286 258 281 293 297 304 311 311 313 317 318 332 335 332 330 324 322 320 318 321 315 307 57 101 129 171 159 145 153 173 200 171 147 142 121 112 112 101 111 111 90